Flag for United Kingdom Weather past 2 weeks in Poole, England, United Kingdom

Now
54 °F

Clear.


Feels Like: 54 °F
Forecast: 49 / 64 °F
Wind: 2 mph from North

Location: Bournemouth Airport

Current Time: Aug 27, 2015 at 11:27:24 PM

Latest Report: Aug 27, 2015 at 10:50 PM


Visibility: 10 mi

Pressure: 29.86 "Hg

Humidity: 94%

Dew point: 52 °F

Location of PooleLocation

Historic Weather in Poole — Graph

°F

Poole temperature yesterday

Maximum temperature yesterday: 66 °F (at 2:50 PM)
Minimum temperature yesterday: 59 °F (at 7:50 AM)
Average temperature yesterday: 63 °F

Past Weeks' High & Low Weather Summary

 TemperatureHumidityPressure
High77 °F (Aug 22, 11:50 AM)100% (Aug 14, 1:50 AM)30.15 "Hg (Aug 14, 1:50 AM)
Low41 °F (Aug 16, 5:50 AM)43% (Aug 16, 11:50 AM)29.42 "Hg (Aug 24, 8:20 AM)
Average62 °F83%29.86 "Hg
* Reported Aug 12 10:20 PM — Aug 27 10:20 PM, Poole, Weather by CustomWeather, © 2015

Note: Actual official high and low records may vary slightly from our data, if they occured in-between our weather recording intervals... More about our weather records

Advertising

Poole weather history for previous 24 hours

 ConditionsComfort  
Time TempWeatherWind HumidityBarometerVisibility
10:20 PM
Thu, Aug 27
55 °FClear.3 mph88%29.86 "Hg10 mi
9:20 PM57 °FClear.3 mph82%29.83 "Hg10 mi
8:50 PM57 °FPassing clouds.5 mph82%29.83 "HgN/A
8:20 PM59 °FPassing clouds.8 mph77%29.80 "HgN/A
7:50 PM59 °FPassing clouds.8 mph77%29.80 "HgN/A
7:20 PM61 °FPassing clouds.10 mph77%29.80 "HgN/A
6:50 PM63 °FPassing clouds.14 mph68%29.77 "HgN/A
6:20 PM63 °FScattered clouds.14 mph68%29.77 "HgN/A
5:50 PM64 °FScattered clouds.15 mph68%29.77 "HgN/A
5:20 PM64 °FScattered clouds.13 mph68%29.77 "HgN/A
4:50 PM64 °FScattered clouds.13 mph64%29.77 "HgN/A
4:20 PM64 °FScattered clouds.14 mph73%29.77 "HgN/A
3:50 PM64 °FScattered clouds.14 mph68%29.77 "HgN/A
3:20 PM64 °FScattered clouds.14 mph73%29.77 "HgN/A
2:50 PM63 °FScattered clouds.13 mph73%29.77 "HgN/A
2:20 PM63 °FScattered clouds.12 mph77%29.77 "HgN/A
1:50 PM61 °FScattered clouds.13 mph77%29.74 "HgN/A
1:20 PM61 °FPassing clouds.10 mph77%29.74 "HgN/A
12:50 PM61 °FScattered clouds.8 mph77%29.74 "HgN/A
12:20 PM59 °FScattered clouds.9 mph82%29.74 "HgN/A
11:50 AM59 °FScattered clouds.9 mph82%29.74 "HgN/A
11:20 AM59 °FSprinkles. Scattered clouds.14 mph82%29.74 "HgN/A
10:20 AM61 °FScattered showers. Scattered clouds.10 mph83%29.74 "HgN/A
9:50 AM61 °FPassing clouds.8 mph83%29.71 "HgN/A
9:20 AM59 °FPassing clouds.7 mph88%29.71 "HgN/A
8:50 AM59 °FPassing clouds.8 mph88%29.71 "HgN/A
8:20 AM59 °FPassing clouds.9 mph88%29.71 "HgN/A
7:50 AM59 °FPassing clouds.10 mph88%29.68 "HgN/A
7:20 AM59 °FPassing clouds.12 mph88%29.68 "HgN/A
6:50 AM59 °FPassing clouds.14 mph88%29.68 "HgN/A
6:20 AM59 °FRain. Passing clouds.10 mph88%29.65 "Hg4 mi
5:50 AM59 °FPassing clouds.10 mph88%29.65 "HgN/A
5:20 AM59 °FPassing clouds.12 mph88%29.65 "HgN/A
12:20 AM59 °FClear.8 mph88%29.68 "Hg10 mi
11:50 PM
Wed, Aug 26
59 °FClear.12 mph88%29.68 "Hg10 mi
Weather by CustomWeather, © 2015

See weather overviewHow to use our weather pages